FW4074 Weather Reports


time (UTC)temp
F
wind
direction
speed
knots
gust
knots
rain 1hr
in
rain 24hr
in
rain mn
in
humidity
%
barometer
mb
20260504081558 71 146 8.7 12.2 0.00 0.00 0.00 70 1016.6
20260504044536 70 136 6.1 11.3 0.00 0.00 0.00 64 1019.3
20260504043040 71 140 6.1 12.2 0.00 0.00 0.00 64 1019.6
20260504041532 71 158 6.1 11.3 0.00 0.00 0.00 64 1019.6
20260504040030 71 107 6.1 10.4 0.00 0.00 0.00 64 1019.5
20260504034529 71 130 6.1 10.4 0.00 0.00 0.00 63 1019.4
20260504033029 71 129 4.3 10.4 0.00 0.00 0.00 63 1019.3
20260504031529 71 137 6.1 11.3 0.00 0.00 0.00 63 1019.4
20260504030028 71 136 3.5 10.4 0.00 0.00 0.00 64 1019.0
20260504024528 71 113 6.1 11.3 0.00 0.00 0.00 62 1018.9
20260504023027 71 144 2.6 8.7 0.00 0.00 0.00 64 1019.0
20260504021532 71 150 6.1 9.6 0.00 0.00 0.00 64 1019.1
20260504020035 71 84 6.1 9.6 0.00 0.00 0.00 62 1018.9
20260504014534 71 109 5.2 11.3 0.00 0.00 0.00 63 1018.9
20260504013026 71 116 7.0 10.4 0.00 0.00 0.00 62 1018.8
20260504011525 71 142 5.2 9.6 0.00 0.00 0.00 63 1019.0
20260504010024 71 127 3.5 8.7 0.00 0.00 0.00 64 1019.0
20260504004524 72 143 6.1 10.4 0.00 0.00 0.00 61 1019.1
20260504003023 72 146 6.1 12.2 0.00 0.00 0.00 61 1019.1
20260504001523 73 114 6.1 13.0 0.00 0.00 0.00 60 1019.0
20260504000021 73 80 7.0 11.3 0.00 0.00 0.00 60 1019.2
20260503234522 73 143 6.1 12.2 0.00 0.00 0.00 61 1019.2
20260503233018 74 140 7.8 12.2 0.00 0.00 0.00 58 1019.2
20260503231521 74 129 8.7 14.8 0.00 0.00 0.00 60 1019.3
20260503230017 74 140 6.1 11.3 0.00 0.00 0.00 57 1019.6
20260503224514 74 136 5.2 12.2 0.00 0.00 0.00 57 1019.5
20260503223013 74 121 6.1 12.2 0.00 0.00 0.00 57 1019.7
20260503221511 74 152 6.1 13.9 0.00 0.00 0.00 57 1019.8
20260503220009 75 143 7.8 12.2 0.00 0.00 0.00 55 1020.0
20260503214525 74 142 7.0 12.2 0.00 0.00 0.00 55 1020.1
20260503213007 75 130 6.1 12.2 0.00 0.00 0.00 58 1020.5
20260503211505 75 149 7.0 13.9 0.00 0.00 0.00 56 1020.7
20260503210003 75 138 7.8 14.8 0.00 0.00 0.00 56 1020.8
20260503204600 75 143 10.4 17.4 0.00 0.00 0.00 57 1021.0
20260503203058 75 153 7.0 12.2 0.00 0.00 0.00 57 1021.2
20260503201557 75 148 8.7 13.0 0.00 0.00 0.00 57 1021.4
20260503200108 75 146 7.0 13.9 0.00 0.00 0.00 58 1021.7
20260503194603 75 109 6.1 11.3 0.00 0.00 0.00 59 1021.7
20260503193102 75 117 7.8 13.0 0.00 0.00 0.00 59 1021.9
20260503191604 75 76 7.0 12.2 0.00 0.00 0.00 56 1022.1
20260503190053 76 128 6.1 12.2 0.00 0.00 0.00 53 1022.4
20260503184601 76 136 6.1 10.4 0.00 0.00 0.00 54 1022.5
20260503183052 75 130 6.1 10.4 0.00 0.00 0.00 53 1022.5
20260503181609 75 99 6.1 10.4 0.00 0.00 0.00 54 1022.9
20260503180110 75 131 7.0 10.4 0.00 0.00 0.00 52 1022.9
20260503174556 76 124 5.2 9.6 0.00 0.00 0.00 52 1023.2
20260503173058 75 90 4.3 9.6 0.00 0.00 0.00 54 1023.3
20260503171548 75 128 4.3 10.4 0.00 0.00 0.00 54 1023.4